Regional Weather Roundup
Issued by NWS

Home | Current Version | Previous Version | Text Only | Print | Product List | Glossary On
Versions: 1 2 3 4 5 6 7 8 9 10 11 12 13 14 15 16 17 18 19 20 21 22 23 24 25 26 27 28 29 30 31 32 33 34 35 36 37 38 39 40 41 42 43 44 45 46 47 48 49 50
000
ASUS44 KEWX 011811
RWRTX
SOUTH TEXAS REGIONAL WEATHER ROUNDUP
NATIONAL WEATHER SERVICE AUSTIN/SAN ANTONIO TX
100 PM CDT TUE SEP 01 2015

NOTE: "FAIR" INDICATED FEW OR NO CLOUDS BELOW 12,000 FEET WITH NO
SIGNIFICANT WEATHER AND/OR OBSTRUCTIONS TO VISIBILITY.

* - THESE STATIONS ARE NOT NWS OR FAA STATIONS...AND ARE NOT SUBJECT
    TO NWS AND FAA QUALITY CONTROL.

TXZ171-172-183>190-011900-
TEXAS HILL COUNTRY AND EDWARDS PLATEAU

CITY           SKY/WX    TMP DP  RH WIND       PRES   REMARKS
JUNCTION       MOSUNNY   86  63  45 S9        30.05F
6HR MIN TEMP:  67; 6HR MAX TEMP:  87;

*LLANO         MOSUNNY   91  64  40 S6        30.05F HX  93
BURNET         MOSUNNY   87  66  49 VRB3      30.06F
6HR MIN TEMP:  71; 6HR MAX TEMP:  89;

*HORSESHOE BAY MOSUNNY   89  67  47 E6        30.03F HX  92
6HR MIN TEMP:  70; 6HR MAX TEMP:  90;

*KERRVILLE     MOSUNNY   87  67  51 SE10      30.05F HX  90
6HR MIN TEMP:  72; 6HR MAX TEMP:  88;

*FREDERICKSBRG PTSUNNY   87  63  44 S7        30.05F
6HR MIN TEMP:  69; 6HR MAX TEMP:  87;

*ROCKSPRINGS   MOSUNNY   84  64  51 S13       30.11F
*BOERNE STAGE  MOSUNNY   86  68  54 S10       30.06F
*CASTROVILLE   PTSUNNY   88  64  45 SE10      30.02F
HONDO          PTSUNNY   89  68  49 S7        30.03F HX  93
6HR MIN TEMP:  72; 6HR MAX TEMP:  89; 6HR PCP: TRACE;

*UVALDE        MOSUNNY   87  68  53 SE6       30.02F HX  90
6HR MIN TEMP:  73; 6HR MAX TEMP:  87;

DEL RIO        SUNNY     89  66  46 S12       29.99F HX  91
6HR MIN TEMP:  72; 6HR MAX TEMP:  89;

LAUGHLIN AFB   SUNNY     88  67  49 S10       30.00F HX  91
6HR MIN TEMP:  71; 6HR MAX TEMP:  89;

CARRIZO SPRGS  SUNNY     88  64  45 SE6       29.97F
*EAGLE PASS    PTCLDY    88  66  48 SE8       30.00F HX  90
$$

TXZ173-191>194-202-209-217>225-228-011900-
CENTRAL AND SOUTH CENTRAL TEXAS

CITY           SKY/WX    TMP DP  RH WIND       PRES   REMARKS
GEORGETOWN     PTSUNNY   88  68  51 SE6       30.03F HX  91
AUSTIN/BERGSTM LGT RAIN  82  71  69 E13       30.03S
6HR MIN TEMP:  71; 6HR MAX TEMP:  87; 6HR PCP: TRACE;

AUSTIN/MABRY   MOSUNNY   87  68  52 SW8       30.03F HX  90
6HR MIN TEMP:  75; 6HR MAX TEMP:  90;

*AUSTIN/EXEC   MOSUNNY   82  73  74 CALM      30.03S
*LAGO VISTA    MOSUNNY   90  65  44 SE6       30.05F HX  92
6HR MIN TEMP:  74; 6HR MAX TEMP:  90;

SAN MARCOS     MOSUNNY   88  72  58 S10G16    30.04F HX  94
NEW BRAUNFELS  PTSUNNY   88  69  53 S7        30.01F HX  92
6HR MIN TEMP:  74; 6HR MAX TEMP:  90;

RANDOLPH AFB   PTSUNNY   88  68  52 SE8       30.02F HX  91
6HR MIN TEMP:  75; 6HR MAX TEMP:  88;

PT SAN ANTONIO MOSUNNY   88  68  51 VRB5      30.00F HX  91
6HR MIN TEMP:  76; 6HR MAX TEMP:  89;

SAN ANTONIO    PTSUNNY   88  68  51 SE10      30.02F HX  91
6HR MIN TEMP:  76; 6HR MAX TEMP:  89;

STINSON FIELD  MOSUNNY   88  69  53 VRB5      29.98F HX  92
6HR MIN TEMP:  76; 6HR MAX TEMP:  89; 6HR PCP: TRACE;

*PLEASANTON    PTSUNNY   87  67  50 S3        30.00F HX  90
6HR MIN TEMP:  73; 6HR MAX TEMP:  90;

*LA GRANGE     MOSUNNY   83  75  78 SE3       30.02F HX  90
6HR MIN TEMP:  72; 6HR MAX TEMP:  87; 6HR PCP:  0.37;

*GIDDINGS      MOSUNNY   80  72  75 W6        30.09S
6HR MIN TEMP:  69; 6HR MAX TEMP:  83; 6HR PCP:  0.29;

*GONZALES      MOSUNNY   87  72  59 CALM      30.02F HX  93
6HR MIN TEMP:  72; 6HR MAX TEMP:  88; 6HR PCP:  0.10;

$$

TXZ163>164-176>182-195>201-210>213-226-227-235-011900-
SOUTHEAST TEXAS

CITY           SKY/WX    TMP DP  RH WIND       PRES   REMARKS
COLLEGE STN    MOSUNNY   88  70  55 SE15G21   30.03F HX  93
6HR MIN TEMP:  72; 6HR MAX TEMP:  89;

*BRYAN         HVY RAIN  77  74  89 E3        30.06R
6HR MIN TEMP:  68; 6HR MAX TEMP:  90; 6HR PCP:  0.20;

*CALDWELL      MOSUNNY   90  66  45 SE13      30.05F HX  92
*CROCKETT      MOSUNNY   88  66  48 SE6       30.08F HX  90
*BRENHAM       MOSUNNY   80  73  79 SE10      30.07R
6HR MIN TEMP:  72; 6HR MAX TEMP:  85;

HUNTSVILLE     PTSUNNY   88  69  53 VRB3      30.04F HX  92
6HR MIN TEMP:  71; 6HR MAX TEMP:  88;

CONROE         CLOUDY    83  69  62 S13       30.07S
6HR MIN TEMP:  68; 6HR MAX TEMP:  86;

HOUSTON BUSH   CLOUDY    77  70  79 SE8       30.07F
6HR MIN TEMP:  72; 6HR MAX TEMP:  79;

HOUSTON HOBBY  LGT RAIN  73  70  90 E6        30.06F
6HR MIN TEMP:  73; 6HR MAX TEMP:  78; 6HR PCP:  0.23;

*HOUSTON SW AP CLOUDY    74  71  90 CALM      30.06F
6HR MIN TEMP:  71; 6HR MAX TEMP:  77; 6HR PCP:  0.18;

PEARLAND       RAIN      74  72  93 NE7       30.07F
6HR MIN TEMP:  73; 6HR MAX TEMP:  78; 6HR PCP:  0.26;

HOUSTON HOOKS  CLOUDY    78  70  76 S7        30.07F
6HR MIN TEMP:  73; 6HR MAX TEMP:  82;

ELLINGTON FLD  LGT RAIN  73  72  94 NE7       30.08F
SUGAR LAND     LGT RAIN  75  73  93 CALM      30.05F
6HR MIN TEMP:  72; 6HR MAX TEMP:  80; 6HR PCP:  1.25;

*HOUSTON EXEC  CLOUDY    75  72  88 E5        30.06F
*CLEVELAND MUN CLOUDY    80  75  86 S5        30.07F HAZE
6HR MIN TEMP:  69; 6HR MAX TEMP:  81;

*WHARTON       MOSUNNY   80  69  71 NE6       30.05R
6HR MIN TEMP:  71; 6HR MAX TEMP:  82;

*COLUMBUS      FAIR      83  70  65 E8        30.03F
6HR MIN TEMP:  71; 6HR MAX TEMP:  83; 6HR PCP:  0.01;

*EAGLE LAKE    CLOUDY    81  70  71 CALM      30.03F
6HR MIN TEMP:  71; 6HR MAX TEMP:  81; 6HR PCP:  0.17;

$$

TXZ214>216-236>238-011900-
THE UPPER TEXAS COAST

CITY           SKY/WX    TMP DP  RH WIND       PRES   REMARKS
*ORANGE        DRIZZLE  N/A N/A N/A CALM      30.08F
PORT ARTHUR    LGT RAIN  81  77  88 E5        30.06F
6HR MIN TEMP:  73; 6HR MAX TEMP:  83; 6HR PCP: TRACE;

GALVESTON      LGT RAIN  75  72  90 NE7       30.08F
6HR MIN TEMP:  72; 6HR MAX TEMP:  83; 6HR PCP:  2.66;

ANGLETON       CLOUDY    80  74  81 E6        30.05F
6HR MIN TEMP:  72; 6HR MAX TEMP:  80; 6HR PCP:  0.41;

*BAY CITY      MOSUNNY   82  75  78 E8        30.04S
PALACIOS       MOSUNNY   82  72  71 E7        30.03S
6HR MIN TEMP:  71; 6HR MAX TEMP:  82; 6HR PCP:  2.05;

$$

TXZ229>234-239>247-011900-
TEXAS COASTAL BEND AND RIO GRANDE PLAINS

CITY           SKY/WX    TMP DP  RH WIND       PRES   REMARKS
VICTORIA       MOSUNNY   84  73  69 NE5       30.01S HX  90
6HR MIN TEMP:  73; 6HR MAX TEMP:  85; 6HR PCP:  0.20;

*BEEVILLE      MOSUNNY   90  71  53 SE8       29.98F HX  96
6HR MIN TEMP:  71; 6HR MAX TEMP:  90;

ROCKPORT       MOSUNNY   85  71  63 SE9       29.99R HX  90
6HR MIN TEMP:  77; 6HR MAX TEMP:  86; 6HR PCP: TRACE;

*PORT ARANSAS  MOSUNNY   84  74  70 S12       29.97S HX  91
6HR MIN TEMP:  76; 6HR MAX TEMP:  84;

*PORT LAVACA   MOSUNNY   83  73  72 E9        30.02S
6HR MIN TEMP:  72; 6HR MAX TEMP:  83; 6HR PCP:  0.02;

*INGLESIDE     SUNNY     89  71  56 S13       29.97S HX  95
CORPUS CHRISTI PTSUNNY   87  73  62 S8G20     29.97F HX  94
6HR MIN TEMP:  76; 6HR MAX TEMP:  87;

CORPUS NAS     MOSUNNY   86  73  65 S13       29.97F HX  93
6HR MIN TEMP:  76; 6HR MAX TEMP:  86;

*ROBSTOWN      MOSUNNY   88  74  63 S12       29.98S HX  97
6HR MIN TEMP:  74; 6HR MAX TEMP:  88;

ALICE          SUNNY     89  71  55 SE9       29.97F HX  95
6HR MIN TEMP:  72; 6HR MAX TEMP:  89;

KINGSVILLE NAS PTSUNNY   90  76  63 SE10      29.97F HX 101
6HR MIN TEMP:  73; 6HR MAX TEMP:  90;

COTULLA        MOSUNNY   91  68  46 VRB7      29.98F HX  95
6HR MIN TEMP:  75; 6HR MAX TEMP:  91;

*FAITH RANCH   CLOUDY    90  64  43 SE8       29.99F HX  91
LAREDO         CLOUDY    91  68  46 CALM      29.99F HX  95
6HR MIN TEMP:  73; 6HR MAX TEMP:  91;

$$

TXZ248>255-011900-
DEEP SOUTH TEXAS

CITY           SKY/WX    TMP DP  RH WIND       PRES   REMARKS
BROWNSVILLE    CLOUDY    86  74  67 E16       29.97F HX  94
6HR MIN TEMP:  72; 6HR MAX TEMP:  87;

PORT ISABEL    MOSUNNY   87  75  67 E16       29.97F HX  96
6HR MIN TEMP:  76; 6HR MAX TEMP:  88;



USA.gov is the U.S. government's official web portal to all federal, state and local government web resources and services.